Regional Weather Roundup
Issued by NWS

Home | Current Version | Previous Version | Graphics & Text | Print | Product List | Glossary On
Versions: 1 2 3 4 5 6 7 8 9 10 11 12 13 14 15 16 17 18 19 20 21 22 23 24 25 26 27 28 29 30 31 32 33 34 35 36 37 38 39 40 41 42 43 44 45 46 47 48 49 50
000
ASUS43 KMPX 302110
RWRMN
WEATHER ROUNDUP FOR MINNESOTA
NATIONAL WEATHER SERVICE TWIN CITIES/CHANHASSEN MN
400 PM CDT SAT JUL 30 2016


NOTE: "FAIR" INDICATES FEW OR NO CLOUDS BELOW 12,000 FEET WITH NO
SIGNIFICANT WEATHER AND/OR OBSTRUCTIONS TO VISIBILITY. N/A MEANS
CURRENT SKY AND/OR WEATHER CONDITIONS ARE NOT AVAILABLE.

MNZ060>063-068>070-302200-
   Twin Cities Metro

CITY           SKY/WX    TMP DP  RH WIND       PRES   REMARKS
TWIN CITIES    PTSUNNY   80  62  54 S10       29.99F
ST PAUL        SUNNY     80  63  55 SE8       29.99F
CRYSTAL        PTSUNNY   82  61  48 NE7       29.98F
BLAINE         PTSUNNY   82  63  51 SE8       29.99F
LAKEVILLE      PTSUNNY   79  64  61 SE7       30.00S
EDEN PRAIRIE   PTSUNNY   82  63  52 VRB3      29.98F
LAKEVILLE      PTSUNNY   79  64  61 SE7       30.00S
SOUTH ST PAUL  MOSUNNY   81  60  50 S3        29.99F
LAKE ELMO      FAIR      79  63  57 SE5       30.01F
$$
MNZ001>005-007-008-013>017-022>024-027-028-302200-
   Northwest Minnesota

CITY           SKY/WX    TMP DP  RH WIND       PRES   REMARKS
BEMIDJI        MOSUNNY   74  60  63 SE10      30.01F
HALLOCK        CLOUDY    70  66  88 S12       29.89S
ROSEAU         MOSUNNY   79  64  61 S15       29.94R
WARROAD        MOSUNNY   81  64  57 S12G20    29.94S
THIEF RVR FALL MOSUNNY   79  62  56 S14       29.95F
CROOKSTON      SUNNY     81  61  50 S15       29.94S
FOSSTON        PTSUNNY   75  61  60 S9        29.98F
DETROIT LAKES  SUNNY     77  59  53 S10       30.00S
MOORHEAD       SUNNY     79  59  50 S12       29.95F
PARK RAPIDS    SUNNY     80  56  43 S9        30.00F
MAHNOMEN       FAIR      77  60  56 S10       29.97F
$$
MNZ006-009>011-018-025>026-302200-
   North Central Minnesota

CITY           SKY/WX    TMP DP  RH WIND       PRES   REMARKS
BAUDETTE       CLOUDY    77  59  53 S13G21    29.97F
FLAG ISLAND    PTSUNNY   77  64  65 S9        29.93F
INTL FALLS     PTSUNNY   75  58  55 S5        29.98F
WASKISH        CLOUDY    75  63  64 S5        29.99F
BIG FORK       CLOUDY    73  61  64 W5        30.02S
LONGVILLE      SUNNY     75  55  50 S6        30.02S
GRAND RAPIDS   SUNNY     78  56  46 SE6       30.03F
CRANE LAKE     SUNNY     77  48  36 N1        30.02F
ORR            SUNNY     79  50  36 CALM      29.99S
COOK           PTSUNNY   79  54  41 SE5       30.02S
WALKER         LGT RAIN  73  60  64 CALM      30.01F
$$
MNZ012-019>021-037-302200-
   Northeast Minnesota

CITY           SKY/WX    TMP DP  RH WIND       PRES   REMARKS
DULUTH         MOSUNNY   74  62  66 SE9       30.04S
ELY            MOSUNNY   77  48  36 SW7       30.03F
HIBBING        PTSUNNY   74  51  44 SE7       30.02F
EVELETH        MOSUNNY   78  47  33 S5        30.04S
DULUTH HARBOR  MOSUNNY   68  63  83 NE9       30.04S
TWO HARBORS    SUNNY     77  63  61 E6        30.02F
SILVER BAY     SUNNY     73  61  64 E7        30.03F
GRAND MARAIS     N/A     67  58  72 E6        30.06S
G MARAIS ARPRT SUNNY     72  52  49 SE6       30.09F
$$
MNZ029>031-032-039>041-046>048-054>057-064-302200-
   West Central Minnesota

CITY           SKY/WX    TMP DP  RH WIND       PRES   REMARKS
FERGUS FALLS   SUNNY     79  57  47 S10       29.98F
WHEATON        SUNNY     81  63  54 SE9       29.98F
MORRIS         SUNNY     82  54  36 SE10      29.98S
ALEXANDRIA     SUNNY     77  55  46 SE9       30.01F
ELBOW LAKE     FAIR      77  58  51 SE8G16    29.99F
WADENA         MOSUNNY   77  57  50 SE9       30.00F
GLENWOOD       SUNNY     79  54  41 SE7       30.01F
APPLETON       SUNNY     79  55  44 SE7       29.97F
BENSON         SUNNY     79  54  41 S10       29.99S
ORTONVILLE     SUNNY     79  59  50 S7        29.97F
MADISON        SUNNY     79  57  47 SE8       29.98S
WILLMAR        FAIR      79  57  47 SE5       30.01F
$$
MNZ033>034-036-042>043-049>051-058-059-302200-
   Central Minnesota

CITY           SKY/WX    TMP DP  RH WIND       PRES   REMARKS
ST CLOUD       MOSUNNY   80  62  54 S7        30.00S
SAUK CENTRE    FAIR      78  58  49 S6        30.00F
PAYNESVILLE    SUNNY     78  55  43 SE6       30.00F
AITKIN         MOSUNNY   82  50  32 SW5       30.00F
PINE RIVER     SUNNY     79  55  44 SE3       30.04F
BRAINERD       MOSUNNY   77  58  51 SE7       30.01F
STAPLES        SUNNY     79  54  41 CALM      30.00F
LONG PRAIRIE   FAIR      77  55  47 NE5       30.01F
LITTLE FALLS   MOSUNNY   77  55  47 SE6       30.00F
LITCHFIELD     SUNNY     81  57  44 SE7       30.00F
BUFFALO        MOSUNNY   78  62  56 E3        30.01F
MAPLE LAKE     MOSUNNY   81  66  61 SE5       30.01F
HUTCHINSON     CLOUDY    79  60  52 CALM      30.01F
$$
MNZ037-044-045-052-053-302200-
   East Central Minnesota

CITY           SKY/WX    TMP DP  RH WIND       PRES   REMARKS
PRINCETON      PTSUNNY   81  64  57 E8        30.00S
MORA           SUNNY     77  59  53 E7        30.02F
CAMBRIDGE      SUNNY     81  64  57 E9        29.99F
RUSH CITY      RAIN      72  66  81 S3        30.02F
MOOSE LAKE     PTSUNNY   73  61  64 CALM      30.01S
HINCKLEY       MOCLDY    77  61  57 SE3       30.01F
CLOQUET        MOSUNNY   75  61  60 SE7       30.03S
MCGREGOR       MOSUNNY   81  55  41 S5        30.02S
$$
MNZ071>073-080-081-089-090-097-098-302200-
   Southwest Minnesota

CITY           SKY/WX    TMP DP  RH WIND       PRES   REMARKS
MONTEVIDEO     SUNNY     81  57  44 S5        30.00F
GRANITE FALLS  SUNNY     79  56  45 E9        30.00F
CANBY          SUNNY     80  58  46 SE7       29.99S
MARSHALL       SUNNY     78  57  48 CALM      29.99F
REDWOOD FALLS  SUNNY     80  51  36 SE8       29.98F
OLIVIA         SUNNY     77  55  47 S5        29.99F
PIPESTONE      MOSUNNY   79  55  44 S8        30.00F
WINDOM         MOSUNNY   79  55  44 S5        30.00F
WORTHINGTON    MOSUNNY   77  59  53 S8        30.01F
JACKSON        MOSUNNY   79  54  41 CALM      30.01F
TRACY          MOSUNNY   79  60  52 SE5       30.00F
SLAYTON        SUNNY     78  54  43 SE7       30.01F
$$
MNZ065>067-074>077-082>085-091>093-302200-
   South Central Minnesota

CITY           SKY/WX    TMP DP  RH WIND       PRES   REMARKS
MANKATO        SUNNY     77  59  53 S5        29.99F
NEW ULM        SUNNY     79  55  44 CALM      29.99F
ST JAMES       MOSUNNY   73  55  53 CALM      30.00F
FAIRMONT       SUNNY     77  61  57 SE6       29.99F
GLENCOE        MOSUNNY   81  64  55 SE5       29.99F
FARIBAULT      PTSUNNY   73  64  73 SE9       30.01S
OWATONNA       DRIZZLE   72  66  83 CALM      30.01F
WASECA         CLOUDY    72  63  73 NE14      30.03R
ALBERT LEA     HVY RAIN  70  66  88 CALM      30.02S
$$
MNZ078>079-086>088-094>096-302200-
   Southeast Minnesota

CITY           SKY/WX    TMP DP  RH WIND       PRES   REMARKS
ROCHESTER      CLOUDY    76  66  71 CALM      30.02F
RED WING       MOSUNNY   82  61  47 SE8       29.98F
STANTON        CLOUDY    72  64  78 SE6       30.00S
DODGE CENTER   PTSUNNY   75  66  73 E6        30.02F
WINONA         PTSUNNY   79  61  53 E6        30.00S
AUSTIN         CLOUDY    73  64  73 CALM      30.01S
PRESTON        PTSUNNY   77  62  61 SE6       30.02F
$$
ABBREVIATIONS USED IN REMARKS
   TC - TEMPERATURES IN CELSIUS
  WCI - WIND CHILL INDEX
   HX - HEAT INDEX
  VSB - VISIBILITY
$$



USA.gov is the U.S. government's official web portal to all federal, state and local government web resources and services.